Flag for Myanmar Weather past 2 weeks in Yangon, Myanmar

Now
82 °F

Partly sunny.


Feels Like: 91 °F
Forecast: 78 / 88 °F
Wind: 8 mph from Southwest

Location: Rangoon Airport

Current Time: Aug 5, 2015 at 7:05:56 PM

Latest Report: Aug 5, 2015 at 6:00 PM


Visibility: 5 mi

Pressure: 29.62 "Hg

Humidity: 84%

Dew point: 77 °F

Location of YangonLocation

Historic Weather in Yangon — Graph

°F

Yangon temperature yesterday

Maximum temperature yesterday: 84 °F (at 10:30 AM)
Minimum temperature yesterday: 77 °F (at 5:30 AM)
Average temperature yesterday: 81 °F

Past Weeks' High & Low Weather Summary

 TemperatureHumidityPressure
High88 °F (Jul 29, 1:30 PM)100% (Jul 21, 5:30 PM)29.92 "Hg (Jul 21, 5:30 PM)
Low73 °F (Jul 25, 6:00 AM)70% (Jul 24, 4:30 PM)29.59 "Hg (Aug 5, 5:00 PM)
Average79 °F93%29.78 "Hg
* Reported Jul 21 5:30 PM — Aug 5 6:00 PM, Yangon, Weather by CustomWeather, © 2015

Note: Actual official high and low records may vary slightly from our data, if they occured in-between our weather recording intervals... More about our weather records

Advertising

Yangon weather history for previous 24 hours

 ConditionsComfort  
Time TempWeatherWind HumidityBarometerVisibility
6:00 PM
Wed, Aug 5
82 °FPartly sunny.8 mph84%29.62 "Hg5 mi
5:30 PM84 °FMostly cloudy.9 mph89%29.62 "Hg4 mi
5:00 PM84 °FMostly cloudy.7 mph89%29.59 "Hg4 mi
4:30 PM84 °FMostly cloudy.6 mph89%29.62 "Hg5 mi
4:00 PM84 °FMostly cloudy.7 mph89%29.62 "Hg4 mi
3:30 PM82 °FMostly cloudy.9 mph84%29.62 "Hg5 mi
3:00 PM82 °FMostly cloudy.8 mph84%29.65 "Hg5 mi
2:30 PM84 °FMostly cloudy.8 mph84%29.65 "Hg5 mi
2:00 PM84 °FMostly cloudy.9 mph84%29.65 "Hg5 mi
1:30 PM84 °FMostly cloudy.9 mph84%29.68 "Hg5 mi
1:00 PM84 °FPartly sunny.7 mph84%29.68 "Hg5 mi
12:00 PM84 °FPartly sunny.8 mph84%29.71 "Hg5 mi
11:30 AM84 °FPartly sunny.9 mph84%29.71 "Hg5 mi
11:00 AM84 °FPartly sunny.9 mph84%29.71 "Hg5 mi
10:30 AM82 °FPartly sunny.8 mph84%29.74 "Hg5 mi
9:30 AM81 °FMostly cloudy.7 mph84%29.74 "Hg4 mi
9:00 AM81 °FMostly cloudy.7 mph84%29.74 "Hg4 mi
8:30 AM81 °FMostly cloudy.7 mph84%29.74 "Hg4 mi
8:00 AM81 °FMostly cloudy.7 mph84%29.71 "Hg4 mi
7:30 AM79 °FMostly cloudy.5 mph84%29.71 "Hg4 mi
7:00 AM79 °FMostly cloudy.5 mph84%29.71 "Hg4 mi
6:30 AM79 °FPartly sunny.3 mph84%29.68 "Hg4 mi
6:00 AM79 °FPassing clouds.3 mph84%29.68 "Hg4 mi
5:30 AM79 °FPassing clouds.5 mph84%29.68 "Hg4 mi
5:00 AM79 °FPassing clouds.5 mph84%29.68 "Hg4 mi
12:30 AM79 °FMostly cloudy.6 mph84%29.74 "Hg4 mi
12:00 AM79 °FMostly cloudy.6 mph84%29.74 "Hg4 mi
11:30 PM
Tue, Aug 4
81 °FMostly cloudy.6 mph84%29.74 "Hg4 mi
11:00 PM81 °FMostly cloudy.6 mph84%29.77 "Hg4 mi
10:30 PM81 °FMostly cloudy.6 mph84%29.74 "Hg4 mi
10:00 PM81 °FMostly cloudy.6 mph84%29.74 "Hg4 mi
9:30 PM81 °FMostly cloudy.7 mph84%29.74 "Hg4 mi
9:00 PM81 °FMostly cloudy.7 mph84%29.74 "Hg4 mi
8:30 PM81 °FMostly cloudy.8 mph84%29.74 "Hg4 mi
8:00 PM81 °FMostly cloudy.8 mph84%29.71 "Hg4 mi
7:30 PM82 °FMostly cloudy.6 mph84%29.71 "Hg4 mi
7:00 PM82 °FMostly cloudy.6 mph84%29.71 "Hg4 mi
Weather by CustomWeather, © 2015

See weather overviewHow to use our weather pages